Theta_e
338 339 338 338 339 338 338 338 338 338 338 337 337 336 336 336 336 335 335 335 334 335 335 335 334 334 334 335 334 333 333 336 338 337 336 336 335 335 336 336 335 334 334 334 333 333 333 332 331 332 333 333 332 332 332 331 330 330 330 331 330 330 331
337 338 337 337 338 337 337 337 337 338 338 337 336 336 335 335 335 335 334 334 334 334 334 335 334 333 334 335 334 333 335 337 338 338 337 334 333 334 335 335 333 334 335 334 333 333 334 333 332 333 333 333 333 332 331 330 330 330 331 331 330 330 330
337 337 337 337 337 337 338 337 337 337 337 337 337 337 336 335 335 334 334 334 333 333 333 334 334 334 334 335 334 334 336 336 336 338 336 332 332 335 335 333 332 334 335 334 332 333 334 332 332 333 333 333 333 332 332 331 330 330 331 331 330 331 330
336 336 336 336 336 337 337 337 337 337 337 337 337 337 336 335 334 334 334 333 333 332 332 333 334 334 334 334 334 335 336 335 335 336 335 333 335 336 336 334 333 334 334 333 332 333 333 333 333 333 332 333 333 333 332 331 331 331 331 331 331 330 330
334 334 334 335 335 336 335 335 336 336 337 337 337 337 336 335 334 334 334 333 332 331 331 332 334 334 334 334 333 333 334 334 334 334 333 335 337 336 336 335 334 335 334 332 332 333 333 333 333 332 332 333 333 333 332 331 331 331 330 331 330 330 330
334 333 334 334 334 335 335 334 334 334 335 336 337 337 335 335 334 334 334 333 333 331 331 333 334 334 334 335 334 332 333 334 334 334 333 335 336 335 336 335 333 334 333 332 331 331 332 333 333 331 331 332 332 332 332 332 332 331 330 330 330 330 330
333 333 334 334 334 334 334 334 333 331 332 334 336 337 336 335 335 334 334 334 334 333 332 333 334 334 334 334 333 332 333 334 333 334 334 334 334 333 334 335 334 333 333 332 331 331 332 332 332 331 331 331 330 331 332 332 332 331 330 329 329 330 329
331 332 333 333 333 333 333 334 334 332 332 332 334 336 336 336 335 335 334 334 335 335 334 333 334 334 333 334 334 333 334 333 332 333 334 334 333 333 334 335 334 333 332 332 331 331 332 332 332 330 331 331 331 331 331 331 330 330 329 329 329 329 329
328 330 331 332 333 334 333 334 335 333 332 333 333 334 335 336 335 335 335 334 334 335 335 334 334 334 334 335 335 334 333 333 333 334 334 334 333 333 333 333 333 334 333 332 331 331 331 331 331 331 331 330 330 331 331 330 330 329 330 329 329 329 329
325 327 329 330 332 333 333 334 334 334 332 332 332 332 333 334 335 335 335 334 334 335 335 334 334 334 335 335 335 334 333 333 334 334 334 334 333 333 333 332 333 335 333 331 331 330 331 332 332 332 332 331 331 331 330 330 330 329 330 329 329 330 330
323 324 326 327 329 331 332 333 333 333 333 332 332 332 332 333 334 335 335 335 334 334 334 334 334 334 334 334 334 333 333 334 334 334 333 333 333 332 332 332 334 334 333 331 331 331 331 332 333 332 331 330 331 331 330 331 331 331 330 329 330 330 329
321 322 323 324 325 327 330 331 331 331 332 332 331 331 332 333 334 335 335 335 334 334 334 334 334 333 333 333 333 333 333 334 333 333 333 332 333 333 332 332 333 333 333 331 330 331 331 333 335 334 331 332 332 331 331 333 332 331 330 330 330 330 329
320 320 321 322 322 324 326 328 329 330 331 331 331 331 331 333 334 334 334 335 334 334 334 334 334 333 332 333 333 333 334 334 333 333 333 332 333 333 332 333 332 332 333 332 331 331 332 334 335 335 332 332 332 330 330 332 332 330 330 330 330 329 330
319 319 319 320 321 322 323 324 325 327 329 331 332 331 331 332 333 333 333 334 334 334 334 334 334 333 333 332 333 333 334 334 333 333 334 334 333 333 333 333 331 332 333 333 333 333 334 334 335 334 332 331 331 330 330 331 331 331 330 331 330 329 329
318 318 318 319 319 320 320 321 322 324 327 329 331 332 332 332 333 333 333 332 332 333 333 334 334 333 333 333 333 333 334 334 333 333 334 334 333 332 333 333 331 331 332 332 333 332 332 334 334 333 332 331 331 330 330 331 331 331 330 331 331 329 328
317 317 317 317 318 318 319 320 321 323 324 326 329 331 331 332 332 332 332 332 332 332 332 333 333 334 333 333 333 333 333 333 332 333 333 333 333 333 333 333 332 332 331 331 332 331 332 335 334 332 332 331 330 329 330 331 330 331 331 330 330 329 328
316 316 316 316 317 317 318 319 320 321 322 324 326 328 330 331 331 331 332 332 332 332 332 332 332 334 333 333 332 332 332 332 331 331 332 333 332 332 333 333 333 332 330 329 330 331 334 335 333 331 331 330 330 330 330 331 330 330 331 329 329 328 328
315 315 315 315 315 316 317 317 318 319 320 322 324 326 328 330 330 331 332 331 331 332 332 331 331 332 333 332 332 331 332 331 330 331 333 333 331 331 332 334 333 332 331 330 330 331 333 334 332 331 330 329 329 330 330 331 331 330 330 330 329 328 328
314 314 314 314 314 315 315 316 316 317 318 319 321 323 326 328 329 330 330 330 330 331 331 331 331 331 332 331 331 332 333 332 331 331 331 331 331 332 333 333 332 331 332 331 330 330 332 333 332 332 330 329 329 330 331 331 331 330 330 329 330 328 326
313 313 313 313 313 313 314 314 314 315 315 316 318 320 321 324 326 328 330 329 329 329 330 331 331 331 331 330 330 332 334 334 333 331 330 330 330 332 333 333 332 332 333 332 331 331 331 332 332 332 331 330 329 330 331 330 330 330 329 329 330 328 326
312 312 312 312 312 312 312 312 312 313 313 314 315 316 317 318 321 324 327 328 328 329 330 330 330 330 330 330 330 331 332 332 332 332 331 331 331 332 333 333 332 332 333 334 333 332 331 331 331 332 332 331 329 330 331 330 329 329 330 329 329 328 325
311 311 311 311 311 311 311 311 311 311 311 312 312 313 314 315 316 317 321 325 327 328 329 329 330 329 329 329 329 329 329 330 331 332 331 331 331 332 332 331 330 331 331 332 333 332 331 331 331 331 332 331 329 329 330 329 328 328 329 329 327 327 326
310 310 310 310 310 310 310 310 310 309 310 310 310 310 311 312 312 312 315 319 323 326 328 329 330 330 329 329 329 329 329 330 332 333 332 331 332 332 331 330 330 330 331 331 331 332 331 330 330 330 331 330 329 329 328 329 328 328 328 327 325 326 327
309 309 309 309 309 309 309 309 308 308 308 308 308 309 309 309 310 310 310 313 317 321 325 327 328 329 329 329 329 329 329 330 332 333 330 329 331 332 331 330 330 330 330 330 330 330 330 330 330 330 331 330 329 329 329 330 331 328 327 326 326 325 327
308 308 308 308 308 308 308 308 307 307 307 307 307 307 307 307 307 307 307 308 311 315 319 320 322 325 327 328 328 328 329 330 331 331 330 329 330 332 332 331 329 329 329 329 329 329 329 330 330 330 330 329 329 329 329 330 330 329 328 328 326 326 327
308 308 307 307 307 307 307 307 307 306 306 306 306 306 305 305 305 305 305 305 306 309 312 315 317 319 323 325 327 327 328 330 329 329 330 330 329 330 330 329 328 327 328 329 330 330 329 330 330 330 329 329 329 329 329 329 329 330 330 329 328 327 328
307 307 307 307 307 306 306 306 306 306 306 305 305 305 304 304 303 303 303 303 303 304 306 309 313 315 318 321 324 325 326 328 329 329 329 329 328 328 327 328 328 327 327 328 329 330 331 331 330 330 329 329 329 329 329 328 328 329 328 328 329 329 328
306 307 306 306 306 306 306 306 305 305 305 305 304 304 303 303 302 302 302 302 302 302 303 305 308 311 314 317 319 322 323 325 328 327 327 327 328 328 327 327 328 327 327 328 328 330 331 330 330 329 329 329 327 327 327 327 327 327 327 327 328 328 328
306 306 306 306 306 306 305 305 305 304 304 304 304 303 303 302 302 301 301 300 300 300 301 303 304 307 311 313 316 318 319 322 325 327 327 328 327 327 327 326 326 327 328 328 328 329 329 329 329 329 328 327 324 323 325 325 325 326 326 327 327 326 326
306 306 305 306 305 305 305 305 304 304 304 304 304 303 302 302 301 301 300 300 299 299 299 300 302 304 308 310 313 315 317 319 323 327 328 328 326 326 326 326 326 327 327 328 328 328 328 328 328 326 325 325 322 320 320 322 323 324 325 327 327 326 325
305 305 305 305 305 305 305 304 304 304 304 303 303 303 302 302 302 301 300 299 299 298 298 299 300 302 306 308 311 313 314 318 323 326 326 324 322 323 325 326 326 325 325 327 328 328 327 326 325 324 324 324 321 317 316 317 319 321 322 324 324 324 323
304 304 304 304 304 304 304 304 303 303 303 303 303 303 302 302 302 301 300 299 298 297 297 297 298 301 304 307 309 311 312 318 322 322 321 320 318 319 323 325 325 323 324 326 327 326 325 324 324 324 324 323 320 316 314 314 316 317 318 318 318 318 317
304 304 304 304 304 304 304 304 303 303 303 303 303 302 302 302 302 301 300 299 298 297 297 296 297 299 302 305 308 310 312 316 318 317 315 315 315 315 318 322 323 323 323 324 324 324 323 323 323 323 323 322 319 315 313 313 314 314 314 314 313 312 312
303 303 303 303 303 303 303 303 303 303 302 302 302 302 301 301 301 301 301 300 299 298 297 296 296 298 300 303 306 308 310 312 313 313 312 311 311 310 311 314 317 318 319 320 321 322 322 322 322 321 321 320 317 314 313 313 313 312 312 311 310 309 309
303 302 302 302 303 303 302 302 302 302 302 302 302 302 301 301 301 301 301 300 299 299 298 297 296 296 297 300 303 305 305 306 308 310 310 308 306 305 304 306 309 311 313 315 317 319 320 320 320 319 318 317 314 312 312 311 311 311 310 309 309 308 308
302 302 302 302 302 302 302 301 301 302 302 302 302 301 301 301 300 300 299 299 299 298 298 298 297 296 296 297 299 300 301 302 302 304 305 304 303 302 302 303 305 306 309 311 314 315 316 316 316 315 315 313 311 310 309 309 309 309 309 309 308 308 307
302 302 301 301 301 301 301 301 300 301 301 301 301 301 301 300 300 299 298 298 298 298 298 297 297 297 296 296 297 297 298 299 299 298 298 299 301 301 301 302 303 305 307 309 311 311 312 311 310 310 310 309 309 308 308 308 308 308 308 307 307 306 306
Wind_Speed
6 6 6 7 9 10 11 12 12 12 13 14 15 16 17 17 19 22 23 24 24 24 25 27 29 29 26 24 24 24 21 17 14 13 13 14 14 13 14 14 12 10 8 8 9 7 5 6 9 12 13 13 13 14 14 13 13 12 11 11 11 11 9
7 7 7 8 9 10 11 12 12 12 12 14 15 16 18 17 18 21 22 23 24 26 29 28 29 30 27 24 25 24 20 15 14 14 13 16 18 14 14 16 14 13 12 11 13 12 8 6 6 8 10 12 11 13 15 14 13 13 12 12 11 10 9
8 9 9 9 10 10 11 12 12 12 12 13 13 14 16 16 17 19 19 22 24 26 27 26 28 30 28 26 25 23 21 18 15 15 15 17 18 14 14 16 16 14 11 10 13 14 10 7 6 6 10 12 10 12 15 16 15 14 13 13 11 10 10
10 11 11 11 12 12 12 13 12 11 11 12 12 12 12 13 15 16 17 19 21 21 21 25 29 29 27 27 26 22 20 21 20 19 19 16 15 14 14 17 17 14 12 11 13 14 11 8 6 5 9 13 12 12 14 17 17 15 14 14 12 11 11
11 12 12 13 13 13 14 14 13 12 11 11 11 11 11 12 13 14 14 16 19 19 20 25 30 30 27 27 28 26 21 22 23 23 22 18 15 14 14 17 18 14 14 16 13 12 13 10 7 6 8 12 10 10 14 18 17 16 15 14 14 13 12
12 12 13 14 14 14 14 13 14 15 13 11 11 11 12 11 11 13 13 14 17 19 21 24 27 30 29 26 28 28 24 22 25 24 22 20 19 18 15 16 19 16 16 18 15 13 14 10 8 7 10 13 10 9 13 16 15 15 15 15 15 15 13
13 14 15 15 15 14 14 13 15 18 16 13 11 11 12 11 11 13 13 13 14 17 21 25 26 29 30 26 26 27 24 22 24 25 23 22 21 22 17 14 17 20 19 19 17 16 15 11 11 10 8 10 10 10 11 13 14 14 15 16 16 15 14
14 16 17 17 16 15 14 14 15 17 16 15 13 12 11 11 12 13 13 14 14 15 20 24 27 28 26 23 23 25 24 22 22 22 23 22 20 22 21 17 17 19 20 19 18 17 16 14 13 12 9 7 7 9 9 12 16 17 16 16 16 16 15
15 16 18 19 17 16 15 14 14 17 17 16 16 15 13 12 12 12 13 15 15 15 18 23 25 24 22 22 21 24 25 22 19 20 21 22 21 22 24 22 19 17 19 20 19 19 18 15 13 11 10 10 8 7 7 8 11 14 16 16 15 16 16
16 16 18 19 19 17 15 14 13 15 17 17 16 17 16 14 12 12 13 14 15 16 18 21 23 21 21 22 23 25 25 21 20 20 20 21 22 22 21 22 20 18 21 23 20 19 18 13 12 11 10 12 11 7 6 7 7 10 15 17 15 16 17
16 16 17 19 20 18 16 16 14 14 16 18 17 16 17 16 13 12 14 15 15 17 18 20 21 22 23 23 23 24 24 22 21 18 18 20 22 21 21 22 21 19 22 24 20 21 20 15 12 11 11 14 13 10 7 6 7 10 15 17 15 15 17
15 16 17 18 20 19 19 19 18 16 16 18 19 18 18 17 14 13 15 15 16 17 18 19 21 23 24 23 23 22 21 21 20 18 20 21 21 23 23 24 24 22 21 23 21 21 22 18 13 13 14 14 12 12 11 5 4 9 12 14 15 15 16
16 16 16 18 19 19 20 21 20 17 16 17 18 20 20 18 16 15 16 16 16 17 18 19 21 24 24 23 23 23 20 20 20 19 21 21 21 23 23 24 26 23 21 22 22 21 21 18 15 15 16 14 13 14 14 7 4 6 9 11 14 16 16
17 17 17 18 18 18 19 21 21 20 18 17 17 20 20 18 16 16 17 17 17 17 17 18 20 23 24 24 24 23 21 20 20 18 18 20 22 24 24 25 24 22 22 22 21 21 20 18 16 17 18 17 15 16 17 15 9 8 10 10 12 16 19
17 18 19 18 18 19 20 20 20 21 20 20 19 20 20 18 17 17 18 19 19 18 18 19 19 22 24 26 25 23 21 21 22 20 18 20 24 24 25 25 25 24 24 23 22 21 21 19 18 19 19 18 18 18 19 16 11 9 10 11 13 15 19
18 19 20 18 18 20 20 20 20 20 21 21 21 22 21 19 18 18 20 21 20 20 20 20 20 20 22 25 26 24 22 22 24 25 23 23 24 23 22 24 27 28 26 26 26 23 20 19 19 19 18 19 21 21 19 15 12 11 11 13 16 17 18
19 20 20 19 20 20 21 20 20 20 21 21 21 22 23 21 19 20 23 22 19 20 21 21 22 22 22 24 25 24 24 24 25 26 26 25 25 24 23 23 24 26 26 27 28 24 19 19 21 22 21 22 23 22 19 16 15 15 14 14 16 18 18
20 21 21 21 21 21 21 20 21 21 21 22 22 22 23 22 20 20 22 22 20 19 20 22 23 23 25 26 25 24 24 24 24 24 25 26 26 25 24 24 25 26 26 25 25 24 22 20 20 21 21 24 25 23 19 17 17 17 16 15 16 17 17
21 21 21 21 21 21 21 21 21 22 21 22 23 23 23 22 22 22 22 22 20 20 20 22 22 22 24 25 24 22 21 21 22 23 24 26 26 24 22 23 25 27 26 24 25 26 24 21 19 19 21 26 26 21 16 14 16 17 16 16 16 16 17
21 21 22 22 22 21 21 21 21 22 22 22 23 24 24 24 23 23 23 23 21 20 20 21 21 21 22 23 22 20 18 19 22 23 23 24 24 22 21 22 22 23 23 22 23 24 21 19 19 18 20 23 19 16 15 15 16 17 17 17 17 17 17
21 21 22 22 22 22 22 22 22 22 22 23 23 24 25 26 25 24 23 23 22 21 21 22 22 21 22 24 24 21 20 20 23 24 23 23 22 21 24 25 24 24 24 20 19 21 20 19 18 17 17 17 13 9 11 13 14 15 17 17 15 15 16
21 21 22 22 22 23 23 23 23 23 23 23 23 24 25 25 26 26 25 23 21 21 22 24 22 21 22 23 23 24 24 22 21 22 22 22 21 20 24 26 25 26 26 23 21 24 24 22 21 17 15 15 15 11 7 8 11 14 14 12 11 13 14
21 21 22 22 23 23 24 23 23 24 24 24 24 24 25 25 26 27 26 24 22 22 22 22 22 21 22 23 23 24 23 19 18 20 20 20 19 19 22 24 25 26 25 24 25 26 25 24 23 20 16 16 18 15 11 10 12 12 9 5 9 11 10
21 21 22 23 23 23 24 24 24 24 24 25 25 24 24 25 25 26 26 25 24 24 22 21 23 25 24 23 22 23 21 18 21 23 23 22 19 18 21 22 23 23 22 23 26 27 24 22 22 23 20 17 18 17 14 13 12 11 7 3 8 13 9
21 22 22 23 23 23 24 25 25 25 25 25 26 25 25 25 25 25 25 26 25 24 24 22 20 22 23 24 23 23 22 21 23 24 23 22 20 18 19 19 19 20 21 24 28 27 26 24 22 23 20 16 16 17 17 15 12 11 11 7 10 16 15
21 22 22 23 23 23 23 25 25 25 25 25 25 25 25 25 25 25 26 27 27 25 24 23 22 19 18 21 22 23 24 24 23 22 22 22 21 20 19 17 18 21 22 25 27 26 26 25 23 22 20 17 16 16 16 16 13 12 12 10 10 14 16
21 22 23 23 23 23 24 25 25 25 25 25 25 25 25 25 25 25 26 27 27 27 26 25 26 24 20 18 18 20 23 25 23 22 23 24 23 24 23 20 21 23 23 26 26 23 21 22 22 21 20 17 14 13 13 13 12 11 10 10 10 11 12
21 22 22 23 23 24 25 25 25 25 25 25 25 24 24 25 25 25 26 27 27 29 28 28 28 27 24 23 20 19 20 22 22 22 23 24 25 25 24 21 21 23 23 24 24 21 17 17 18 19 18 15 11 11 12 12 11 11 11 12 12 10 10
21 22 22 22 23 23 24 25 25 25 24 25 25 24 24 25 25 25 26 27 28 30 30 30 30 29 27 25 23 23 21 21 22 24 23 22 22 23 22 20 21 21 20 19 20 20 19 16 15 16 16 13 10 10 12 13 13 12 12 14 14 12 12
21 21 22 23 23 23 23 23 24 24 25 25 25 25 24 25 25 25 25 27 28 30 31 30 30 30 28 25 23 23 21 20 22 24 23 19 15 15 16 18 20 19 15 15 17 19 20 18 17 17 16 14 11 8 9 11 12 12 11 12 14 15 15
21 21 22 22 23 23 23 23 23 24 24 24 25 25 25 25 25 24 24 26 27 29 31 31 30 30 27 24 21 19 18 19 21 21 18 13 9 12 13 14 18 19 15 14 18 20 19 18 15 15 16 16 12 9 8 10 12 12 12 13 15 16 16
21 21 22 22 22 22 22 23 24 23 22 22 23 25 25 25 25 25 24 25 27 29 31 31 31 30 26 22 18 16 14 14 14 13 13 12 10 12 13 13 16 19 18 17 19 21 19 15 11 11 14 15 13 11 12 12 13 14 13 13 13 13 11
21 21 22 22 22 22 21 22 23 24 23 22 22 23 24 24 26 26 25 25 26 29 31 32 33 31 25 20 16 12 9 6 7 9 10 11 12 11 12 12 13 16 17 17 18 20 18 14 11 11 12 13 14 13 14 14 14 14 14 14 14 13 13
21 21 21 22 22 22 22 22 22 23 23 23 22 23 23 23 25 26 25 26 27 30 33 35 37 35 29 22 15 9 5 2 8 11 12 13 13 12 12 12 12 13 15 17 18 19 18 16 15 14 13 14 17 18 16 16 16 15 15 16 16 14 14
20 20 21 22 22 23 23 22 22 22 23 23 23 24 24 23 23 24 25 26 27 29 33 37 39 40 37 31 22 15 12 11 8 11 15 16 15 14 14 13 12 12 13 16 19 19 18 17 17 17 17 18 21 21 19 17 15 14 14 14 14 13 13
19 20 21 22 22 22 23 23 23 23 23 22 23 23 24 24 24 23 24 26 27 28 29 33 36 38 39 38 34 28 22 19 15 13 16 20 19 17 16 15 12 10 11 15 19 20 19 18 18 18 19 20 22 22 20 18 15 13 13 13 12 13 13
18 19 21 22 21 22 22 23 23 23 23 22 23 23 23 24 23 23 23 24 27 28 29 31 34 36 37 38 39 37 33 29 26 23 23 25 24 20 19 18 15 13 13 17 20 22 22 22 23 24 24 23 22 21 20 19 17 15 15 15 15 16 16
Wind_Direction
296 297 290 280 274 270 268 265 263 260 254 253 252 252 250 244 245 246 244 243 241 238 233 228 228 226 224 220 217 225 225 214 209 205 192 188 196 210 216 221 229 227 214 216 222 214 197 201 204 200 195 190 196 204 203 210 213 198 197 206 195 187 185
299 301 296 286 278 272 271 267 266 264 259 257 253 255 256 247 244 245 245 244 241 240 237 229 226 226 225 221 219 226 227 214 212 213 197 193 201 209 211 216 227 229 223 230 236 232 226 212 194 191 188 186 194 205 203 208 214 202 196 206 201 191 185
308 303 296 291 286 279 276 273 270 266 262 263 258 257 259 252 248 244 240 242 240 240 236 225 222 224 222 220 218 221 223 217 214 216 210 205 206 204 202 208 218 224 223 230 236 233 228 215 202 188 182 183 190 200 202 204 208 204 199 202 199 193 190
308 304 299 295 290 284 281 277 275 269 262 263 260 259 260 253 250 244 239 243 242 243 239 222 219 223 222 221 218 216 219 219 219 219 218 214 206 202 205 209 213 216 216 222 229 228 225 210 192 191 192 191 190 194 201 203 204 203 199 197 195 194 194
303 299 296 292 288 285 284 283 283 276 262 257 257 260 259 252 249 245 242 243 239 241 238 221 218 221 222 221 220 217 216 216 220 221 219 216 209 206 211 215 217 217 216 225 232 229 230 220 200 199 191 189 193 195 197 198 202 205 199 196 196 191 191
304 296 292 291 290 288 288 290 291 285 272 259 256 260 261 254 248 244 241 238 234 235 229 217 215 218 219 220 220 219 215 212 217 220 218 217 213 210 215 220 222 222 223 232 237 229 227 224 219 214 186 184 193 191 194 194 197 205 202 199 198 190 189
314 305 300 297 294 293 294 296 294 291 286 277 266 259 258 255 247 244 241 236 231 230 225 218 215 217 219 219 218 216 213 211 214 216 217 219 217 215 217 221 224 224 227 233 234 225 219 212 216 217 193 189 189 176 188 194 192 200 200 198 200 191 187
323 315 310 307 302 299 301 301 297 292 287 283 279 269 256 250 247 244 242 238 232 228 225 221 219 220 220 218 214 213 212 212 213 212 213 214 214 215 217 221 226 228 229 232 234 230 221 212 213 213 199 196 186 174 189 195 194 200 195 191 196 191 185
332 323 317 315 313 308 303 303 299 293 286 279 279 279 270 255 247 245 244 241 236 230 227 225 224 224 223 219 214 213 214 212 208 208 210 210 213 218 221 222 225 231 229 226 232 235 227 217 214 214 208 204 197 189 194 195 198 201 193 189 192 192 187
334 329 322 320 321 315 306 302 298 295 293 284 277 279 281 270 252 244 244 243 237 231 228 229 228 227 225 222 218 216 213 208 207 210 211 211 215 219 222 222 224 229 230 225 227 234 231 223 219 215 212 213 211 204 200 201 203 199 193 191 191 191 188
335 331 326 323 323 320 313 306 301 296 297 294 285 281 283 278 265 252 246 242 237 233 231 231 232 230 227 224 224 222 215 210 210 210 208 207 211 217 220 224 227 229 229 224 222 225 224 225 225 212 211 220 219 215 216 209 201 200 195 193 193 192 188
338 334 330 327 323 320 316 314 311 302 294 294 290 283 276 271 268 262 253 245 240 236 232 231 234 234 230 227 229 227 220 214 210 207 208 206 206 211 215 220 227 228 225 220 221 222 218 216 218 209 209 215 214 221 232 238 215 207 198 189 188 189 191
344 339 333 330 326 320 318 319 319 313 300 292 285 279 272 268 268 267 261 253 245 243 238 231 232 235 234 230 228 227 222 215 209 208 211 208 205 208 210 216 224 226 222 218 219 221 218 215 216 214 211 208 210 221 223 223 234 216 200 193 186 183 190
349 345 338 333 330 326 324 322 319 317 310 298 288 282 278 275 273 271 268 263 256 251 245 237 231 230 231 230 227 227 224 215 210 211 210 208 208 209 211 214 220 223 222 218 217 218 217 216 215 215 216 213 216 224 218 211 214 204 191 198 196 186 185
352 348 343 338 335 332 329 326 320 316 312 307 301 294 287 281 276 274 274 273 269 261 252 245 238 229 227 228 228 228 225 217 214 213 210 210 211 210 209 211 215 220 222 220 221 221 215 212 212 213 217 217 219 230 227 213 204 198 183 181 197 197 185
353 351 348 343 340 336 331 328 325 318 312 308 305 300 295 289 282 278 273 269 268 266 260 254 246 236 229 227 226 226 225 220 217 213 212 212 211 208 205 207 212 216 219 222 224 222 215 211 209 209 215 217 219 229 231 212 191 196 193 182 193 200 187
353 352 350 346 342 339 335 331 328 325 318 311 305 300 298 296 291 283 275 270 268 266 265 262 254 244 238 233 228 225 222 220 220 218 214 212 211 209 208 207 208 211 217 222 220 219 216 211 208 210 214 216 219 225 226 211 192 190 195 194 196 200 193
353 351 351 348 343 341 339 335 332 329 324 319 313 306 301 299 295 287 278 275 276 273 270 269 261 249 243 241 235 228 222 219 222 221 217 215 215 213 210 210 209 208 211 217 217 217 217 213 210 212 214 219 222 222 217 209 199 193 195 200 201 200 196
352 350 350 348 346 344 341 338 334 331 328 326 322 317 311 305 299 293 288 284 283 279 273 273 267 255 250 248 241 234 226 221 224 224 222 223 222 216 210 211 213 211 209 213 218 218 216 212 211 211 215 221 222 215 209 209 206 201 199 202 203 201 197
352 351 350 349 348 346 344 341 338 335 332 329 328 327 324 319 311 303 298 295 292 283 275 271 266 260 256 253 247 242 234 226 227 229 226 224 220 213 209 207 209 210 210 212 216 215 214 215 217 218 222 226 221 204 201 209 210 208 204 201 203 207 201
353 352 351 350 350 349 346 344 341 339 336 333 333 333 332 331 327 319 310 304 297 284 275 272 269 262 256 253 250 248 242 233 232 232 230 227 222 217 215 214 213 214 214 213 212 210 213 213 215 224 229 231 228 203 198 214 219 218 212 197 195 209 203
354 354 354 353 353 351 349 347 344 342 341 338 337 337 337 338 336 332 326 318 306 288 277 275 275 267 260 256 253 249 245 240 235 232 229 228 223 218 219 219 217 216 214 212 212 214 216 212 212 225 231 224 223 212 197 220 232 235 230 201 185 206 207
357 356 356 356 355 353 352 351 348 345 344 342 341 341 341 342 342 339 334 328 319 304 289 280 275 270 263 257 252 249 246 243 238 232 228 225 217 210 217 220 218 217 215 213 214 218 221 217 214 222 226 216 216 213 197 205 220 231 245 223 181 199 222
359 358 359 358 357 356 355 354 351 348 347 346 344 344 344 344 344 343 340 335 328 321 315 300 282 274 269 262 255 251 246 240 238 235 232 232 223 212 216 220 219 221 221 220 221 221 219 215 211 215 221 217 214 211 200 199 208 213 220 206 165 183 223
1 1 1 360 359 358 357 356 354 351 350 349 347 347 347 346 346 344 344 342 334 330 333 325 301 283 274 268 265 258 248 242 243 239 233 233 228 217 216 216 216 220 222 221 222 218 213 210 209 213 219 219 215 213 210 207 205 205 205 190 169 182 201
3 3 3 1 0 359 359 358 357 354 352 350 349 348 348 348 347 346 346 346 341 336 335 329 321 310 290 273 268 264 254 248 245 237 230 232 232 228 226 219 209 212 217 216 213 211 209 207 207 209 212 214 214 215 218 215 209 207 202 186 177 187 191
3 2 2 2 1 1 1 359 358 356 354 353 351 351 349 349 349 349 347 345 342 341 338 329 322 320 311 292 277 268 260 252 243 232 229 234 235 234 233 227 215 212 213 212 207 200 199 200 202 205 208 211 212 211 215 217 216 217 210 196 196 199 194
2 2 1 1 1 0 0 0 360 358 357 357 355 353 352 351 350 350 350 348 344 342 342 337 329 321 313 305 294 282 273 262 250 238 231 229 230 230 228 225 225 220 210 208 204 191 182 189 197 201 202 201 199 203 208 211 215 216 209 207 210 202 191
4 3 2 1 1 360 359 359 360 358 357 358 359 358 358 357 355 352 353 353 349 345 343 342 338 328 317 309 300 290 283 271 256 243 234 231 231 230 223 222 228 221 203 199 204 194 181 182 191 195 190 178 171 182 196 202 209 209 201 204 211 202 191
6 4 3 3 2 1 0 358 358 358 358 359 1 1 2 2 1 358 357 357 355 351 349 348 344 335 326 318 308 295 286 273 258 243 234 235 230 211 204 212 218 213 197 188 194 191 180 178 188 193 180 160 147 155 182 195 201 202 196 198 205 202 197
9 6 5 4 3 2 2 1 359 358 359 0 2 2 2 3 4 3 1 1 359 356 355 355 351 343 334 325 317 306 291 272 255 236 216 207 186 162 167 187 201 204 200 187 181 178 173 174 186 190 174 156 141 136 158 175 177 177 176 178 184 190 191
11 9 8 7 5 4 3 2 3 1 0 360 0 1 2 3 4 6 4 3 3 2 1 2 360 354 343 331 323 315 299 271 242 212 180 161 143 143 157 170 183 193 196 190 180 176 174 175 178 174 162 153 146 140 144 152 153 154 156 154 155 160 160
10 10 9 8 8 8 5 3 3 4 4 3 1 1 2 2 4 7 6 7 9 9 8 9 9 7 359 346 337 324 307 265 192 161 142 135 126 126 141 155 167 180 186 185 179 173 172 167 159 160 158 151 145 140 138 139 139 137 133 127 123 124 119
10 10 9 9 9 10 10 6 4 4 4 6 7 5 4 4 5 6 7 9 12 15 17 19 20 20 18 11 3 1 15 100 159 153 130 118 114 109 110 124 142 162 176 177 169 163 160 155 151 155 155 147 142 137 132 131 130 126 120 116 116 112 106
12 11 10 9 9 10 12 10 7 5 4 6 10 10 9 7 6 6 8 9 12 14 19 23 25 27 30 31 31 37 54 73 113 142 128 109 97 94 95 102 119 140 155 157 153 150 149 147 146 145 142 141 139 133 126 122 122 120 116 114 114 108 103
15 14 11 11 10 10 11 12 10 9 7 6 9 11 12 11 9 7 7 10 13 14 17 22 26 29 32 37 41 45 51 61 70 90 104 100 92 88 89 93 105 121 128 129 132 136 137 136 134 131 133 137 137 132 125 118 114 113 112 110 107 102 99
16 16 15 15 15 13 12 13 13 12 10 8 8 11 13 12 11 10 9 10 14 16 18 23 27 30 32 36 41 44 48 55 59 60 69 82 87 88 89 92 98 106 110 112 116 120 121 121 121 120 122 126 127 125 120 115 112 107 102 97 89 83 85